EHI
0 0 0 0 0 0 0 0 0 0 0 0 0 0 0 0 0 0 0 0 0 0 0 0 0 0 0 0 0 0 0 0 0 0 0 0 0 0 0 0 0 0 0
0 0 0 0 0 0 0 0 0 0 0 0 0 0 0 0 0 0 0 0 0 0 0 0 0 0 0 0 0 0 0 0 0 0 0 0 0 0 0 0 0 0 0
0 0 0 0 0 0 0 0 0 0 0 0 0 0 0 0 0 0 0 0 0 0 0 0 0 0 0 0 0 0 0 0 0 0 0 0 0 0 0 0 0 0 0
0 0 0 0 0 0 0 0 0 0 0 0 0 0 0 0 0 0 0 0 0 0 0 0 0 0 0 0 0 0 0 0 0 0 0 0 0 0 0 0 0 0 0
0 0 0 0 0 0 0 0 0 0 0 0 0 0 0 0 0 0 0 0 0 0 0 0 0 0 0 0 0 0 0 0 0 0 0 0 0 0 0 0 0 0 0
0 0 0 0 0 0 0 0 0 0 0 0 0 0 0 0 0 0 0 0 0 0 0 0 0 0 0 0 0 0 0 0 0 0 0 0 0 0 0 0 0 0 0
0 0 0 0 0 0 0 0 0 0 0 0 0 0 0 0 0 0 0 0 0 0 0 0 0 0 0 0 0 0 0 0 0 0 0 0 0 0 0 0 0 0 0
1 0 0 0 0 0 0 0 0 0 0 0 0 0 0 0 0 0 0 0 0 0 0 0 0 0 0 0 0 0 0 0 0 0 0 0 0 0 0 0 0 0 0
2 1 1 0 0 0 0 0 0 0 0 0 0 0 0 0 0 0 0 0 0 0 0 0 0 0 0 0 0 0 0 0 0 0 0 0 0 0 0 0 0 0 0
4 3 2 1 1 1 0 0 0 0 0 0 0 0 0 0 0 0 0 0 0 0 0 0 0 0 0 0 0 0 0 0 0 0 0 0 0 0 0 0 0 0 0
8 7 5 4 3 2 1 0 0 0 0 0 0 0 0 0 0 0 0 0 0 0 0 0 0 0 0 0 0 0 0 0 0 0 0 0 0 0 0 0 0 0 0
12 9 7 6 5 3 2 1 0 0 0 0 0 0 0 0 0 0 0 0 0 0 0 0 0 0 0 0 0 0 0 0 0 0 0 0 0 0 0 0 0 0 0
9 8 6 6 5 4 3 1 0 0 0 0 0 0 0 0 0 0 0 0 0 0 0 0 0 0 0 0 0 0 0 0 0 0 0 0 0 0 0 0 0 0 0
3 4 3 3 4 4 3 2 1 0 0 0 0 0 0 0 0 0 0 0 0 0 0 0 0 0 0 0 0 0 0 0 0 0 0 0 0 0 0 0 0 0 0
2 2 1 2 3 3 3 2 1 0 0 0 0 0 0 0 0 0 0 0 0 0 0 0 0 0 0 0 0 0 0 0 0 0 0 0 0 0 0 0 0 0 0
2 3 2 2 2 2 2 1 0 0 0 0 0 0 0 0 0 0 0 0 0 0 0 0 0 0 0 0 0 0 0 0 0 0 0 0 0 0 0 0 0 0 0
1 2 2 1 1 1 0 0 0 0 0 0 0 0 0 0 0 0 0 0 0 0 0 0 0 0 0 0 0 0 0 0 0 0 0 0 0 0 0 0 0 0 0
0 1 1 0 0 0 0 0 0 0 0 0 0 0 0 0 0 0 0 0 0 0 0 0 0 0 0 0 0 0 0 0 0 0 0 0 0 0 0 0 0 0 0
0 0 0 0 0 0 0 0 0 0 0 0 0 0 0 0 0 0 0 0 0 0 0 0 0 0 0 0 0 0 0 0 0 0 0 0 0 0 0 0 0 0 0
0 0 0 0 0 0 0 0 0 0 0 0 0 0 0 0 0 0 0 0 0 0 0 0 0 0 0 0 0 0 0 0 0 0 0 0 0 0 0 0 0 0 0
0 0 0 0 0 0 0 0 0 0 0 0 0 0 0 0 0 0 0 0 0 0 0 0 0 0 0 0 0 0 0 0 0 0 0 0 0 0 0 0 0 0 0
0 0 0 0 0 0 0 0 0 0 0 0 0 0 0 0 0 0 0 0 0 0 0 0 0 0 0 0 0 0 0 0 0 0 0 0 0 0 0 0 0 0 0
0 0 0 0 0 0 0 0 0 0 0 0 0 0 0 0 0 0 0 0 0 0 0 0 0 0 0 0 0 0 0 0 0 0 0 0 0 0 0 0 0 0 0
0 0 0 0 0 0 0 0 0 0 0 0 0 0 0 0 0 0 0 0 0 0 0 0 0 0 0 0 0 0 0 0 0 0 0 0 0 0 0 0 0 0 0
0 0 0 0 0 0 0 0 0 0 0 0 0 0 0 0 0 0 0 0 0 0 0 0 0 0 0 0 0 0 0 0 0 0 0 0 0 0 0 0 0 0 0
0 0 0 0 0 0 0 0 0 0 0 0 0 0 0 0 0 0 0 0 0 0 0 0 0 0 0 0 0 0 0 0 0 0 0 0 0 0 0 0 0 0 0
Wind_Speed
8 7 6 6 7 6 6 6 6 6 6 6 5 5 5 5 4 4 5 7 8 9 8 7 7 6 6 6 6 6 6 6 6 6 6 7 7 7 8 8 8 9 9
8 8 8 7 7 6 6 6 7 6 5 5 5 6 6 5 5 5 5 7 7 8 8 7 6 5 5 5 5 5 5 5 5 5 6 6 6 6 7 7 8 8 9
10 9 8 8 8 8 8 6 7 5 5 5 6 6 5 6 6 6 6 5 7 7 7 8 7 6 4 4 4 4 4 4 4 5 5 5 6 6 7 7 8 8 9
13 11 9 9 9 8 7 7 7 6 6 6 6 5 5 4 7 7 6 6 5 6 7 8 7 6 4 3 2 2 3 3 4 4 5 6 6 7 7 8 8 9 10
15 12 10 10 10 9 8 8 8 7 7 7 5 5 5 5 6 6 7 7 6 6 6 8 7 6 4 3 1 1 2 3 4 5 6 7 7 8 9 10 10 11 11
15 14 10 12 11 9 9 9 9 8 7 6 6 5 5 5 5 6 7 7 7 8 7 7 7 6 5 3 1 1 2 4 5 6 7 8 9 10 11 12 12 13 13
15 15 11 13 12 11 12 13 10 10 8 7 5 5 5 6 7 6 7 7 8 8 8 8 6 5 5 5 2 1 3 4 6 7 8 9 11 11 12 13 14 15 15
15 13 16 13 13 12 14 14 12 9 7 8 7 5 5 7 7 8 7 7 8 8 8 9 8 6 5 4 3 1 2 4 6 8 9 11 12 13 14 15 16 17 17
16 15 16 15 14 13 13 15 15 15 10 10 9 8 6 8 5 6 9 8 8 7 7 7 8 7 6 4 3 4 0 3 6 8 10 12 13 15 16 17 18 18 19
16 16 15 15 14 12 13 14 15 14 13 10 8 8 5 2 5 5 5 7 7 7 7 6 7 6 6 4 3 2 2 2 6 9 12 13 15 17 18 19 19 20 20
14 15 15 14 14 12 14 14 14 15 13 12 9 7 7 3 4 4 4 5 5 5 5 5 5 5 5 4 4 4 2 3 7 10 13 15 17 18 19 20 21 21 21
10 14 14 13 13 12 13 13 12 15 12 12 10 8 7 6 7 6 5 4 4 3 4 3 3 3 4 4 4 4 2 4 8 11 14 17 18 19 20 21 21 21 21
9 11 11 12 11 11 10 10 10 10 11 11 10 7 6 4 3 4 4 3 3 2 3 3 3 3 4 4 4 5 5 7 10 13 16 18 19 19 20 21 21 22 22
9 9 10 10 10 9 9 8 7 8 7 7 7 6 4 3 3 3 4 5 3 2 2 3 2 3 3 4 4 5 6 9 11 14 17 18 19 20 20 21 21 22 22
6 7 7 8 8 8 8 8 6 7 7 6 6 6 5 4 4 3 3 3 5 4 4 3 2 3 3 3 5 6 8 10 13 16 18 19 19 20 21 21 22 22 22
5 5 5 5 6 6 7 7 6 7 8 7 6 8 7 5 5 4 4 4 3 2 2 2 2 3 3 4 6 8 9 12 15 17 18 18 19 20 21 21 22 22 22
3 3 3 4 5 6 7 8 8 9 10 9 8 9 8 8 6 5 5 4 3 2 2 1 2 2 4 6 6 7 8 9 9 15 17 18 20 20 21 21 21 21 22
1 2 4 5 6 7 7 9 10 10 10 10 10 10 9 7 7 5 4 4 3 2 2 3 3 4 6 7 8 9 8 8 9 14 18 19 20 20 20 20 20 21 21
5 6 6 7 7 7 8 9 10 10 10 10 10 10 9 8 7 5 4 3 2 2 2 3 4 4 5 6 7 8 9 9 9 11 15 17 18 18 19 20 21 21 22
8 8 9 9 9 9 9 10 10 11 11 10 9 8 7 6 6 5 3 3 2 2 3 4 5 5 6 6 6 7 7 7 8 9 11 13 15 17 19 21 21 22 22
11 10 11 11 10 9 9 10 10 11 10 10 9 7 6 6 6 4 3 3 3 3 4 4 5 5 6 5 6 6 8 8 9 9 8 7 9 10 12 16 18 19 20
11 11 11 11 11 9 15 15 11 10 9 8 8 6 6 5 4 3 2 3 4 5 5 5 5 6 7 7 6 7 8 9 9 6 8 10 10 11 11 10 16 20 22
11 11 11 11 11 13 17 17 15 9 8 6 6 5 3 3 2 1 2 4 6 7 8 7 8 8 8 8 8 9 9 10 11 10 11 12 11 12 10 11 19 22 23
9 10 10 10 11 13 16 15 13 8 7 6 4 3 2 1 0 3 4 4 5 6 6 7 8 8 8 8 8 9 10 11 12 10 10 12 11 11 11 11 17 21 22
9 9 9 9 10 10 12 11 8 5 5 5 3 2 1 1 2 5 5 5 6 6 6 9 12 12 14 15 12 8 8 8 10 9 8 8 9 11 11 12 12 17 19
8 8 8 8 7 7 8 8 5 3 3 2 1 1 1 3 5 6 5 6 7 7 7 7 8 9 9 9 10 8 7 7 7 7 5 5 8 8 9 8 8 9 12
Wind_Direction
198 195 197 191 196 193 190 196 200 189 192 188 190 189 187 187 179 176 138 132 137 139 139 136 130 122 110 98 88 75 64 54 47 40 33 31 26 20 15 13 10 6 3
205 201 203 200 201 201 200 200 202 195 197 196 191 190 191 185 190 188 163 142 137 144 150 149 141 129 116 104 95 80 63 50 38 28 18 14 10 3 358 357 356 353 350
210 207 210 205 204 204 202 204 199 202 197 193 196 196 196 196 190 190 185 171 156 148 158 158 150 141 126 111 95 81 62 43 23 9 359 351 346 342 339 339 338 336 335
212 211 213 211 206 202 201 199 197 198 195 198 196 192 196 195 204 196 192 189 180 169 161 159 157 151 141 127 103 70 44 23 1 346 336 329 325 322 321 320 320 320 320
213 212 215 214 206 203 203 199 203 204 201 200 196 194 199 199 201 202 204 196 190 188 177 148 145 143 149 146 120 37 1 346 333 324 319 316 313 310 309 308 308 309 309
214 215 215 215 208 204 203 201 199 204 206 193 187 195 205 205 209 206 206 199 193 195 196 179 171 152 152 155 164 303 320 319 314 309 307 307 307 305 303 302 302 303 303
216 215 215 214 209 209 207 204 197 197 197 182 180 195 208 216 217 209 209 204 198 198 201 198 198 188 171 165 175 273 298 305 307 306 305 305 304 302 301 300 299 299 298
219 215 216 214 209 211 210 206 196 196 188 188 193 193 208 206 215 213 208 211 205 197 204 204 201 200 197 197 136 165 304 303 303 303 303 304 304 304 303 301 299 297 296
221 218 219 218 213 211 211 206 201 200 194 195 204 199 207 217 178 189 210 208 206 204 205 202 203 198 198 200 186 165 193 312 308 306 306 306 304 302 300 298 297 296 296
224 221 220 220 217 214 215 210 206 208 202 195 203 225 243 267 189 176 190 208 210 212 209 199 199 195 197 195 174 157 180 298 303 306 307 305 304 302 300 298 297 296 295
226 223 221 219 219 216 218 213 207 210 209 202 192 190 204 219 239 206 183 178 197 211 211 208 201 194 190 194 192 170 193 290 304 307 306 304 302 301 299 298 297 296 295
230 225 222 221 220 218 218 217 211 211 212 209 198 189 185 186 199 204 198 170 176 167 187 202 208 202 191 195 190 165 226 289 303 305 303 301 301 300 300 299 297 296 294
235 228 222 223 221 219 215 212 209 208 210 210 204 199 199 192 166 179 175 149 151 142 173 192 200 201 188 195 183 193 247 280 296 299 300 299 301 301 300 297 294 293 292
244 236 226 222 218 212 205 200 198 196 193 199 196 183 168 149 137 146 149 142 144 168 198 186 165 199 196 202 206 233 266 276 288 294 295 297 299 298 296 293 292 291 290
255 242 228 219 211 201 192 181 182 178 170 171 164 152 136 122 112 107 109 128 149 176 198 176 183 196 210 220 227 258 274 277 285 289 291 293 293 293 292 290 289 288 287
252 236 221 208 194 180 167 160 155 155 150 143 138 137 127 124 113 103 100 89 88 131 174 168 195 194 213 242 256 271 277 284 280 282 286 288 290 290 289 287 286 285 285
248 221 191 169 160 155 151 146 143 144 139 134 134 131 125 123 115 106 100 102 102 116 168 203 211 228 249 261 269 271 276 278 278 279 283 287 289 287 286 285 285 284 283
87 120 128 130 130 135 139 139 139 139 137 135 132 127 125 120 114 113 114 119 127 146 190 233 232 235 249 264 274 279 279 277 278 282 285 287 286 286 285 284 283 282 282
76 85 97 105 110 115 119 122 124 124 122 122 124 123 123 127 124 123 125 134 149 173 209 240 257 253 258 264 277 277 278 277 278 280 283 284 285 285 285 284 284 284 284
74 79 84 89 94 99 103 107 110 109 107 106 108 110 115 121 123 129 135 152 172 200 223 242 255 263 266 271 273 281 286 287 288 288 285 283 283 284 283 283 282 282 282
71 77 81 84 86 88 95 100 101 103 103 101 96 95 101 112 128 140 155 176 199 227 242 250 261 268 271 277 281 291 291 297 295 289 286 287 288 285 284 282 280 278 279
72 75 77 81 82 87 99 99 98 95 97 101 101 101 109 116 128 141 201 244 247 253 257 261 269 273 281 285 290 293 296 298 300 296 299 295 292 287 285 282 283 285 284
76 77 76 79 83 90 93 92 91 91 96 100 106 113 115 119 129 219 253 257 255 262 269 275 275 276 284 290 294 292 289 290 287 291 296 291 290 287 286 284 286 285 286
76 77 77 78 82 87 91 94 95 91 92 96 101 106 111 127 257 279 269 268 268 264 267 269 273 279 282 286 282 281 284 285 283 282 280 284 289 289 292 289 287 286 286
75 74 76 81 85 89 93 98 98 100 101 100 96 85 14 302 295 283 281 282 285 282 270 271 278 281 284 285 287 286 282 283 287 290 289 281 288 298 294 287 284 284 284
83 83 79 78 86 96 99 98 91 90 95 96 99 76 355 318 308 301 293 286 286 294 297 289 282 279 280 280 277 266 268 271 279 288 285 283 292 306 298 282 287 290 288